Flag for Greenland Weather past 2 weeks in Thule Air Base, Greenland

Now
25 °F

Overcast.


Feels Like: 9 °F
Forecast: 22 / 28 °F
Wind: 24 mph from South

Location: Thule A. B.

Current Time: May 23, 2015 at 6:15:09 AM

Latest Report: May 23, 2015 at 4:58 AM


Visibility: N/A

Pressure: 29.47 "Hg

Humidity: 69%

Dew point: 16 °F

Location of Thule Air BaseLocation

Historic Weather in Thule Air Base — Graph

°F

Thule Air Base temperature yesterday

Maximum temperature yesterday: 30 °F (at 11:58 AM)
Minimum temperature yesterday: 23 °F (at 1:58 AM)
Average temperature yesterday: 28 °F

Past Weeks' High & Low Weather Summary

 TemperatureHumidityPressure
High34 °F (May 20, 12:58 PM)93% (May 9, 3:58 AM)30.25 "Hg (May 9, 3:58 AM)
Low18 °F (May 13, 1:58 AM)37% (May 20, 10:58 AM)29.37 "Hg (May 22, 7:58 PM)
Average25 °F71%29.69 "Hg
* Reported May 8 4:58 AM — May 23 4:58 AM, Thule Air Base, Weather by CustomWeather, © 2015

Note: Actual official high and low records may vary slightly from our data, if they occured in-between our weather recording intervals... More about our weather records

Advertising

Thule Air Base weather history for previous 24 hours

 ConditionsComfort  
Time TempWeatherWind HumidityBarometerVisibility
4:58 AM
Sat, May 23
25 °FOvercast.24 mph69%29.47 "HgN/A
4:01 AM23 °FBroken clouds.25 mph80%29.50 "HgN/A
3:58 AM25 °FBroken clouds.25 mph74%29.46 "HgN/A
2:58 AM23 °FOvercast.24 mph80%29.45 "HgN/A
2:04 AM23 °FMostly cloudy.24 mph86%29.48 "HgN/A
1:58 AM25 °FLight snow. Mostly cloudy.23 mph80%29.44 "HgN/A
12:59 AM25 °FLight snow. Overcast.25 mph80%29.47 "Hg4 mi
11:58 PM
Fri, May 22
28 °FOvercast.10 mph74%29.41 "HgN/A
10:58 PM28 °FSunny.8 mph80%29.39 "HgN/A
9:58 PM28 °FSunny.6 mph80%29.37 "HgN/A
8:58 PM28 °FSunny.12 mph80%29.37 "HgN/A
7:58 PM28 °FSunny.12 mph80%29.37 "HgN/A
6:58 PM28 °FSunny.13 mph80%29.38 "HgN/A
5:58 PM28 °FSunny.13 mph80%29.39 "HgN/A
4:58 PM30 °FSunny.17 mph69%29.39 "HgN/A
3:58 PM30 °FSunny.8 mph64%29.40 "HgN/A
2:58 PM30 °FSunny.8 mph64%29.41 "HgN/A
1:58 PM30 °FSunny.8 mph59%29.43 "HgN/A
12:58 PM30 °FSunny.6 mph59%29.46 "HgN/A
11:58 AM30 °FSunny.5 mph59%29.49 "HgN/A
10:58 AM28 °FSunny.5 mph64%29.52 "HgN/A
9:58 AM28 °FSunny.3 mph64%29.55 "HgN/A
8:58 AM27 °FSunny.3 mph69%29.58 "HgN/A
7:58 AM27 °FSunny.5 mph64%29.61 "HgN/A
6:58 AM27 °FSunny.6 mph59%29.63 "HgN/A
Weather by CustomWeather, © 2015

See weather overviewHow to use our weather pages